Regional Weather Roundup
Issued by NWS

Home | Current Version | Previous Version | Text Only | Print | Product List | Glossary Off
Versions: 1 2 3 4 5 6 7 8 9 10 11 12 13 14 15 16 17 18 19 20 21 22 23 24 25 26 27 28 29 30 31 32 33 34 35 36 37 38 39 40 41 42 43 44 45 46 47 48 49 50

207
ASUS43 KOAX 120902
RWRNE

WEATHER ROUNDUP FOR NEBRASKA
NATIONAL WEATHER SERVICE OMAHA NE
300 AM CST FRI FEB 12 2016

NOTES: SATELLITE DATA IS BEING USED TO AUGMENT CLOUD COVER ABOVE
       12000 FEET.
       "FAIR" INDICATES FEW OR NO CLOUDS BELOW 12,000 FEET WITH NO
       SIGNIFICANT WEATHER AND/OR OBSTRUCTIONS TO VISIBILITY.

  * THESE STATIONS DO NOT REPORT WEATHER SUCH AS RAIN...SNOW OR FOG.

NEZ001>004-019>022-054>056-121000-
NEBRASKA PANHANDLE

CITY           SKY/WX    TMP DP  RH WIND       PRES   REMARKS
SCOTTSBLUFF    CLOUDY    30  26  85 NW6       30.25R WCI  24
ALLIANCE       CLOUDY    23  21  92 W7        30.23S WCI  15
CHADRON        CLEAR     24  22  91 CALM      30.26R
KIMBALL        CLOUDY    33  27  78 W10       30.26R WCI  25
SIDNEY         CLOUDY    32  27  81 W13       30.25R WCI  22
$$

NEZ057>060-069>072-079>082-121000-
SOUTHWEST NEBRASKA

CITY           SKY/WX    TMP DP  RH WIND       PRES   REMARKS
NORTH PLATTE   CLOUDY    24  22  91 NW6       30.26R WCI  17
IMPERIAL       CLEAR     28  24  85 W7        30.26R WCI  21
LEXINGTON      CLOUDY    32  28  88 NW7       30.26R WCI  25
MCCOOK         CLEAR     30  26  85 NW5       30.26R WCI  25
$$

NEZ005>010-023>029-035>040-094-121000-
NORTH CENTRAL NEBRASKA

CITY           SKY/WX    TMP DP  RH WIND       PRES   REMARKS
VALENTINE      CLOUDY    31  27  85 N8        30.26R WCI  23
AINSWORTH      CLOUDY    30  28  90 NW10      30.25R WCI  21
BROKEN BOW     CLOUDY    31  28  89 N9        30.23R WCI  23
ORD            CLOUDY    29  24  82 N10       30.25R WCI  20
$$

NEZ041-046>049-061>064-073>077-083>087-121000-
SOUTH CENTRAL NEBRASKA

CITY           SKY/WX    TMP DP  RH WIND       PRES   REMARKS
GRAND ISLAND   CLOUDY    27  24  89 N13       30.27R WCI  16
AURORA         CLOUDY    28  26  91 N12       30.25S WCI  18
HASTINGS       CLOUDY    30  25  81 N16       30.23R WCI  19
HEBRON         CLEAR     28  26  92 N10       30.25R WCI  18
KEARNEY *      CLOUDY    30  27  86 N13       30.24R WCI  20
YORK           CLOUDY    28  27  93 N17G24    30.24S WCI  16
$$

NEZ011>018-030>034-042>045-121000-
NORTHEAST NEBRASKA

CITY           SKY/WX    TMP DP  RH WIND       PRES   REMARKS
NORFOLK        CLOUDY    24  21  88 N17       30.27R WCI  11
ALBION         CLOUDY    27  24  87 N9        30.26S WCI  18
BLAIR          CLOUDY    23  20  89 NW7       30.25R WCI  15
COLUMBUS *     CLOUDY    27  16  63 NW14      30.27S WCI  15
FREMONT        CLOUDY    24  21  86 NW10      30.28R WCI  14
TEKAMAH        PTCLDY    19  16  88 N8        30.29R WCI   9
$$

NEZ050>053-065>068-078-088>093-121000-
SOUTHEAST NEBRASKA

CITY           SKY/WX    TMP DP  RH WIND       PRES   REMARKS
LINCOLN        CLOUDY    29  25  85 N9        30.27R FOG     WCI  20
OMAHA EPPLEY   CLOUDY    24  20  84 N9        30.27R WCI  14
BEATRICE       CLOUDY    29  27  91 N9        30.24R WCI  21
FALLS CITY     CLOUDY    28  22  78 NW3       30.23R
NEBRASKA CITY  CLOUDY    29  25  85 N7        30.25R WCI  22
PLATTSMOUTH    CLOUDY    26  22  85 NW6       30.25R WCI  19
$$

NEZ044-045-051>053-067-121000-
OMAHA AREA

CITY           SKY/WX    TMP DP  RH WIND       PRES   REMARKS
OMAHA EPPLEY   CLOUDY    24  20  84 N9        30.27R WCI  14
BLAIR          CLOUDY    23  20  89 NW7       30.25R WCI  15
FREMONT        CLOUDY    24  21  86 NW10      30.28R WCI  14
OFFUTT AFB     CLOUDY    26  21  82 NW5       30.25R WCI  20
PLATTSMOUTH    CLOUDY    26  22  85 NW6       30.25R WCI  19
WAHOO          CLOUDY    26  23  90 NW7       30.27R WCI  18
$$




USA.gov is the U.S. government's official web portal to all federal, state and local government web resources and services.